ニート彗星

473P/NEAT (2001)

English version
Home page
Updated on February 21, 2024

---------------------------------------------------------------------

・ プロフィール

符号 473P/2001 Q6
発見日 2001年8月28日
発見光度 17.6等
発見者 Near-Earth-Asteroid Tracking Team (Jet Propulsion Laboratory)

・ 軌道要素

                    Epoch = 2001 Nov. 27.0 TT
     T = 2001 Nov.  9.46803 TT        Peri. =  43.33085
     e = 0.8238140                    Node  =  22.13540 2000.0
     q = 1.4081706 AU                 Incl. =  56.85456
       a =  7.9925205 AU   n = 0.04361927   P =  22.60 years

・ 星図

・ 光度変化

        m1 = 14.0 + 5 logΔ +  10.0 log r  [   ,-50]  (              〜2001年 9月20日)
        m1 = -5.0 + 5 logΔ + 110   log r  [-50,  0]  (2001年 9月20日〜2001年11月 9日)
        m1 =  6.8 + 5 logΔ +  30.0 log r  [  0,   ]  (2001年11月 9日〜              )

---------------------------------------------------------------------

軌道要素は Dr. Brian G. Marsden の計算によるもので、 軌道要素は、CBET 5325に掲載されたものです。
に掲載されたものです。
星図は StellaNavigator Ver.2.0 for Windows (アストロアーツ 編著 / アスキー出版局刊) で作成したものです。
光度グラフはComet for Windowsで作成したものです。

---------------------------------------------------------------------

Copyright(C) Seiichi Yoshida (comet@aerith.net). All rights reserved.